COSMOS 2251 DEB, 34031

Orbit data source: Space-Track

COSMOS 2251 DEB, 34031 is space debris in LEO originally from a launch on Wed, 16 Jun 1993 UTC launched from the Plesetsk Missile And Space Complex (PKMTR). The debris from Iridium 33, an American commercial communications satellite, has been tracked extensively since its accidental collision with the defunct Russian satellite Cosmos 2251 in 2009. This event, occurring at high speed in low Earth orbit (LEO), generated thousands of pieces of space debris, significantly increasing the risk of further collisions. The Iridium 33 debris cloud has impacted space traffic management and orbital debris mitigation strategies, making it a subject of ongoing study in space situational awareness.

Loading next visibility...
Identifier
34031, 1993-036HS
Orbit
LEO
Country
Flag of CISCIS
Related business
Manufacturer
Unknown
Mission
Spacecraft
Bus & Motor
Unknown
Mass
Unknown
Launch date (UTC)
1993-06-16 (32 years ago)
Launch vehicle
Unknown
Launch site
Plesetsk Missile And Space Complex (PKMTR)
Object type
Payload
Rocket body
Debris
Shape & HBR
Unknown shape, 0.1 m
Radar Cross Section
Small (<0.1 m²)

Expand to show TLE details & history
Last TLE update: 13 hours ago

TLE from 13 hours ago
0 COSMOS 2251 DEB
1 34031U 93036HS  25308.99272731  .00004721  00000-0  10053-2 0  9995
2 34031  74.0145 207.7629 0022900 331.3720  45.4344 14.59099540880151
Epoch: 2025-11-04T23:49Z
TLE epoch observation values (Epoch: 2025-11-04T23:49:31.639Z)
Latitude
16.30661°
Longitude
170.69069°
Altitude
686.713 km
Speed
7.521 km/s
True Right ascension
14h 10m 10s
True Declination
16° 12' 48"
Sunlit
Object was in daylight at epoch
Visualization orbit readout
Latitude
Unknown
Longitude
Unknown
Altitude
Unknown
Speed
Unknown
Apparent Right ascension
Unknown
Apparent Declination
Unknown
Sunlit
N/A
Visualization observer readout
Local Sidereal Time
09:16:45
Azimuth
Unknown
Elevation
Unknown
Doppler factor
Unknown
Orbital elements
Apogee altitude
709.878 km
Perigee altitude
677.489 km
Semi-major axis
7,071.82 km
Eccentricity
0.00229
Inclination
74.0145°
RAAN
207.7629°
Arg. of periapsis
331.372°
True anomaly
45.62173°
Mean anomaly
45.4344°
Eccentric anomaly
45.52803°
Mean motion
3.64961 °/min
Orbital period
98.64 mins
BSTAR
0.0010053

Documentation

Showing up to 5 results
|